Torna al catalogo

STARLINK-34804

AttivoComunicazioniVLEO
NORAD 65026·PAYLOAD·🇺🇸 United States

Lanciato Jul 30, 2025 da Cape Canaveral Space Force Station

Loading…

Prossimi Passaggi (prossime 24 ore)

TLE

AggiornatoSource: CelesTrak SupGP

Epoca: Sep 14, 2026, 20:53 UTC

1 65026C 25161M   26257.87062500 -.00058677  00000+0 -17335-2 0  2576
2 65026  53.1576 133.9320 0001339  90.3885 357.1470 15.34423023    13

Traccia STARLINK-34804 in tempo reale con AllMySat

Download on the App Store